Regional Weather Roundup
Issued by NWS

Home | Current Version | Previous Version | Graphics & Text | Print | Product List | Glossary On
Versions: 1 2 3 4 5 6 7 8 9 10 11 12 13 14 15 16 17 18 19 20 21 22 23 24 25 26 27 28 29 30 31 32 33 34 35 36 37 38 39 40 41 42 43 44 45 46 47 48 49
000
ASUS45 KSLC 281710
RWRUT

UTAH REGIONAL WEATHER ROUNDUP
NATIONAL WEATHER SERVICE SALT LAKE CITY UT
1000 AM MST SAT FEB 28 2015

UTZ001>011-023>025-281800-

NORTHERN UTAH

CITY           SKY/WX    TMP DP  RH WIND       PRES   REMARKS
BRIGHAM CITY   MOSUNNY   39  18  43 E15G22    29.72R WCI  30
HILL AFB       PTSUNNY   37  14  38 E17G33    29.68F WCI  28
LOGAN          SUNNY     32  25  75 N5        29.75S WCI  27
OGDEN          PTSUNNY   40  18  41 NE13      29.69S WCI  32
PROVO AIRPORT  NOT AVBL
SALT LAKE CITY CLOUDY    36  25  64 CALM      29.69R
VERNAL         PTSUNNY   34  21  59 CALM      29.79S
WENDOVER       CLOUDY    39  21  48 CALM      29.70S
HEBER CITY     CLOUDY    28  21  74 CALM      29.72F
WEST JORDAN    SUNNY     36  23  60 CALM      29.69S

$$

UTZ012>022-026-027-281800-

SOUTHERN/CENTRAL UTAH

CITY           SKY/WX    TMP DP  RH WIND       PRES   REMARKS
BLANDING       CLOUDY    30  30  99 SE15      29.83R WCI  19
CEDAR CITY     SNOW      32  31  96 S14       29.65R VSB 1/2 WCI  22
DELTA          CLOUDY    32  26  76 CALM      29.68R
HANKSVILLE     CLOUDY    32  32 100 N9        29.76F WCI  24
MILFORD        LGT SNOW  33  31  92 SW3       29.65R FOG
MOAB/CYNLANDS  CLOUDY    35  22  58 SE13      29.75S WCI  26
PRICE          CLOUDY    34  24  67 CALM      29.73R
ST GEORGE      CLOUDY    43  36  75 NW12      29.72R
KANAB          CLOUDY    37  36  93 CALM      29.74R

$$

REGIONAL REPORTS     COLORADO/ARIZONA

CITY           SKY/WX    TMP DP  RH WIND       PRES   REMARKS
CRAIG, CO      SUNNY     30  15  53 E16       29.79S WCI  19
GRAND JUNCTION CLOUDY    34  18  52 E14       29.80R WCI  25
RIFLE          PTSUNNY   28  18  66 CALM      29.81F
MONTROSE       CLOUDY    28  19  69 S3        29.82S
CORTEZ         HVY SNOW  32  31  96 CALM      29.79F VSB<1/4
PAGE, AZ       CLOUDY    36  34  92 CALM      29.72S FOG
GRAND CANYON   CLOUDY    37  30  75 SW9G18    29.74R WCI  30
KINGMAN        PTSUNNY   50  35  56 SW17      29.76R
FLAGSTAFF      FLURRIES  34  30  85 SW22G29   29.78R WCI  22

$$

REGIONAL REPORTS    NEVADA/IDAHO/WYOMING

CITY           SKY/WX    TMP DP  RH WIND       PRES   REMARKS
LAS VEGAS, NV  MOSUNNY   56  30  37 S18G29    29.64R
ELY            CLOUDY    30  28  92 N6        29.65S WCI  24
ELKO           CLOUDY    28  28 100 CALM      29.68R
POCATELLO, ID  SUNNY     30  19  63 NE17      29.78R WCI  18
BURLEY         MOSUNNY   32  16  51 E17G26    29.75R WCI  21
EVANSTON, WY   MOSUNNY   20  14  77 NE20      29.73F WCI   4
ROCK SPRINGS   CLOUDY    17  10  74 E17       29.82R WCI   1

$$



USA.gov is the U.S. government's official web portal to all federal, state and local government web resources and services.